TimeEST,TemperatureF,Dew PointF,Humidity,Sea Level PressureIn,VisibilityMPH,Wind Direction,Wind SpeedMPH,Gust SpeedMPH,PrecipitationIn,Events,Conditions,WindDirDegrees,DateUTC
12:53 AM,75.0,68.0,79,30.06,10.0,East,11.5,-,N/A,,Partly Cloudy,90,2013-01-13 05:53:00
1:53 AM,75.0,69.1,82,30.05,10.0,East,9.2,-,N/A,,Scattered Clouds,100,2013-01-13 06:53:00
2:53 AM,75.0,-9999,N/A,30.05,10.0,East,12.7,-,N/A,,Partly Cloudy,100,2013-01-13 07:53:00
3:53 AM,75.0,-9999,N/A,30.04,10.0,ESE,13.8,-,N/A,,Mostly Cloudy,120,2013-01-13 08:53:00
4:53 AM,75.9,-9999,N/A,30.04,10.0,ESE,16.1,-,N/A,,Overcast,120,2013-01-13 09:53:00
5:53 AM,75.0,-9999,N/A,30.05,10.0,East,11.5,-,N/A,,Scattered Clouds,100,2013-01-13 10:53:00
5:56 AM,75.2,71.6,89,30.05,10.0,ESE,15.0,-,N/A,,Scattered Clouds,110,2013-01-13 10:56:00
6:53 AM,75.0,71.6,89,30.04,10.0,ESE,17.3,-,N/A,,Scattered Clouds,110,2013-01-13 11:53:00
7:53 AM,75.0,68.0,79,30.04,10.0,ESE,16.1,23.0,N/A,,Scattered Clouds,110,2013-01-13 12:53:00
8:53 AM,77.0,68.0,74,30.06,10.0,ESE,17.3,23.0,N/A,,Scattered Clouds,110,2013-01-13 13:53:00
9:53 AM,80.1,69.8,71,30.06,10.0,ESE,21.9,26.5,N/A,,Scattered Clouds,110,2013-01-13 14:53:00
10:53 AM,79.0,69.8,73,30.08,10.0,ESE,15.0,24.2,N/A,,Scattered Clouds,110,2013-01-13 15:53:00
11:53 AM,81.0,68.0,65,30.09,10.0,East,15.0,-,N/A,,Scattered Clouds,100,2013-01-13 16:53:00
12:53 PM,81.0,68.0,65,30.09,10.0,East,12.7,-,N/A,,Scattered Clouds,90,2013-01-13 17:53:00
1:53 PM,79.0,68.0,69,30.07,10.0,ESE,11.5,-,N/A,,Mostly Cloudy,120,2013-01-13 18:53:00
2:53 PM,80.1,68.0,67,30.06,10.0,ESE,13.8,-,0.00,,Scattered Clouds,120,2013-01-13 19:53:00
3:53 PM,79.0,68.0,69,30.07,10.0,ESE,13.8,-,N/A,,Scattered Clouds,110,2013-01-13 20:53:00
4:53 PM,77.0,67.3,72,30.08,10.0,ESE,12.7,-,N/A,,Scattered Clouds,110,2013-01-13 21:53:00
5:53 PM,75.9,66.2,72,30.09,10.0,East,10.4,-,N/A,,Scattered Clouds,100,2013-01-13 22:53:00
6:53 PM,75.0,64.9,71,30.10,10.0,East,11.5,-,N/A,,Scattered Clouds,100,2013-01-13 23:53:00
7:53 PM,75.0,64.9,71,30.09,10.0,ESE,12.7,-,N/A,,Scattered Clouds,110,2013-01-14 00:53:00
8:53 PM,75.0,64.9,71,30.08,10.0,ESE,16.1,-,N/A,,Scattered Clouds,110,2013-01-14 01:53:00
9:53 PM,73.9,61.0,64,30.07,10.0,ESE,13.8,-,N/A,,Scattered Clouds,110,2013-01-14 02:53:00
10:53 PM,75.9,-9999,N/A,30.08,10.0,ESE,16.1,-,N/A,,Mostly Cloudy,110,2013-01-14 03:53:00
11:53 PM,73.9,-9999,N/A,30.10,10.0,ESE,13.8,-,N/A,,Partly Cloudy,110,2013-01-14 04:53:00